CST,Max TemperatureF,Mean TemperatureF,Min TemperatureF,Max Dew PointF,MeanDew PointF,Min DewpointF,Max Humidity, Mean Humidity, Min Humidity, Max Sea Level PressureIn, Mean Sea Level PressureIn, Min Sea Level PressureIn, Max VisibilityMiles, Mean VisibilityMiles, Min VisibilityMiles, Max Wind SpeedMPH, Mean Wind SpeedMPH, Max Gust SpeedMPH,PrecipitationIn, CloudCover, Events, WindDirDegrees
2013-11-1,52,46,43,47,44,39,100,89,66,29.82,29.67,29.55,10,9,5,18,14,24,0.00,8,Rain,259
2013-11-2,48,42,36,42,37,33,100,80,58,30.19,30.01,29.82,10,10,5,20,9,,0.00,3,,304
2013-11-3,97,45,31,41,35,30,96,75,49,30.35,30.27,30.20,10,10,8,15,7,17,0.00,0,,132
2013-11-4,55,49,43,44,40,35,80,70,57,30.25,30.21,30.14,10,10,10,28,17,31,0.00,3,,178
2013-11-5,55,52,50,54,50,45,100,91,80,30.29,30.18,29.99,10,6,1,22,14,33,0.04,7,Rain,179
2013-11-6,55,46,34,56,48,27,100,94,73,30.25,29.99,29.86,10,6,2,26,22,36,0.60,7,Rain,236
2013-11-7,48,38,29,35,30,27,92,78,46,30.36,30.31,30.25,10,10,10,20,10,25,0.00,1,,272
2013-11-8,48,38,28,33,30,27,100,69,46,30.39,30.26,30.05,10,10,10,24,10,30,0.00,0,,205
2013-11-9,61,51,41,40,36,34,82,59,35,30.20,30.06,29.98,10,10,10,26,20,32,0.00,0,,256
2013-11-10,47,40,32,35,30,28,86,69,48,30.43,30.35,30.23,10,10,5,16,11,,0.00,1,,272
2013-11-11,52,40,25,41,32,19,100,81,59,30.54,30.29,30.15,10,7,1,22,14,25,0.01,7,Rain-Snow,318
2013-11-12,31,25,19,20,18,14,85,77,64,30.79,30.72,30.56,10,10,5,18,13,,0.00,0,,321
2013-11-13,37,28,18,22,19,15,89,69,51,30.70,30.52,30.29,10,10,10,23,11,29,0.00,0,,219
2013-11-14,50,40,29,28,23,20,69,55,32,30.27,30.13,30.04,10,10,10,22,19,30,0.00,0,,210
2013-11-15,47,42,37,40,34,27,93,72,58,30.06,30.02,29.97,10,10,8,20,14,,0.00,3,Rain,199
2013-11-16,61,51,42,61,52,41,100,97,77,29.95,29.79,29.63,10,7,1,31,21,43,0.11,7,Rain,180
2013-11-17,70,58,43,66,55,37,100,86,67,29.87,29.52,29.25,10,9,2,38,23,58,0.31,4,Rain-Thunderstorm,221
2013-11-18,47,40,32,40,31,24,89,70,44,30.32,30.12,29.88,10,10,10,25,15,32,0.00,1,,289
2013-11-19,43,34,25,29,27,23,91,77,48,30.41,30.35,30.29,10,10,10,13,8,,0.00,0,,90
2013-11-20,41,36,31,39,33,27,93,84,70,30.30,30.20,30.08,10,9,3,22,13,29,0.18,4,Rain,152
2013-11-21,48,46,43,48,46,39,100,97,82,30.22,30.17,30.13,10,4,0,16,9,23,0.27,8,Fog-Rain,229
2013-11-22,44,36,27,45,35,26,100,93,76,30.56,30.42,30.20,10,7,2,24,14,29,0.02,6,Rain,337
2013-11-23,26,20,14,25,13,6,96,70,54,30.79,30.65,30.53,10,10,10,23,14,30,0.00,2,Snow,329
2013-11-24,37,24,10,16,6,3,80,68,41,30.83,30.68,30.41,10,10,10,13,7,,0.00,0,,240
2013-11-25,30,27,24,22,18,15,78,64,56,30.38,30.23,30.13,10,9,3,21,15,24,0.00,5,Snow,220
2013-11-26,32,24,15,23,16,5,81,67,54,30.25,30.16,30.10,10,10,10,22,11,30,0.00,5,,293
2013-11-27,25,18,10,10,5,2,74,60,40,30.36,30.32,30.24,10,10,10,21,13,26,0.00,0,,305
2013-11-28,34,25,16,17,13,9,78,62,44,30.56,30.37,30.27,10,10,10,18,11,,0.00,1,,254
2013-11-29,36,25,14,20,16,9,84,68,46,30.69,30.59,30.44,10,10,9,15,6,,0.00,0,,131
2013-11-30,50,38,27,29,26,20,81,67,45,30.42,30.25,30.12,10,10,9,16,12,,0.00,0,,198